Havre, MT

7:08 PM MST on November 17, 2017 (GMT -0700)
Havre City-County

Weather History for KHVR - April, 2013

Change the Weather History Date:

Saturday, April 27, 2013

  Actual Average Record
Temperature  
Mean Temperature 63 °F 48 °F  
Max Temperature 77 °F 62 °F 85 °F (2001)
Min Temperature 48 °F 34 °F 16 °F (1961)
Degree Days  
Heating Degree Days 2 17  
Month to date heating degree days 676 569  
Since 1 July heating degree days 7539 7687  
Cooling Degree Days 0 0  
Month to date cooling degree days 0 0  
Year to date cooling degree days 0 0  
Growing Degree Days 15 (Base 50)    
Moisture  
Dew Point 29 °F    
Average Humidity 33    
Maximum Humidity 50    
Minimum Humidity 15    
Precipitation  
Precipitation 0.00 in 0.04 in 1.05 in (2012)
Month to date precipitation 0.67 0.72  
Year to date precipitation 2.59 1.87  
Snow  
Snow 0.00 in 0.00 in 2.00 in (1983)
Month to date snowfall 3.5 2.8  
Since 1 July snowfall 50.5 37.0  
Snow Depth 0.00 in    
Sea Level Pressure  
Sea Level Pressure 29.80 in    
Wind  
Wind Speed 22 mph (WSW)    
Max Wind Speed 40 mph    
Max Gust Speed 49 mph    
Visibility 10 miles    
Events      
T = Trace of Precipitation, MM = Missing Value Source: NWS Daily Summary

Daily Weather History Graph

Daily Weather History Graph

Search for Another Location

Airport or City:

Trip Planner

Search our weather history database for the weather conditions in past years. The results will help you decide how hot, cold, wet, or windy it might be!

Date:

Astronomy

Apr. 27, 2013 Rise Set
Actual Time 6:05 AM MDT 8:28 PM MDT
Civil Twilight 5:31 AM MDT 9:03 PM MDT
Nautical Twilight 4:47 AM MDT 9:46 PM MDT
Astronomical Twilight 3:58 AM MDT 10:37 PM MDT
Moon 11:10 PM MDT (4/27) 7:19 AM MDT (4/27)
Length of Visible Light 15h 32m
Length of Day
14h 22m
Waning Gibbous, 95% of the Moon is Illuminated
Apr 27
Waning Gibbous
May 2
Last Quarter
May 9
New
May 17
First Quarter
May 24
Full

Hourly Weather History & Observations

Time (MDT) Temp. Dew Point Humidity Pressure Visibility Wind Dir Wind Speed Gust Speed Precip Events Conditions
12:53 AM 55.9 °F 27.0 °F 33% 29.89 in 10.0 mi SW 16.1 mph - N/A   Clear
1:53 AM 52.0 °F 28.0 °F 40% 29.88 in 10.0 mi SW 18.4 mph - N/A   Clear
2:53 AM 48.9 °F 28.9 °F 46% 29.89 in 10.0 mi SW 13.8 mph - N/A   Clear
3:53 AM 51.1 °F 30.0 °F 44% 29.88 in 10.0 mi SW 16.1 mph - N/A   Clear
4:53 AM 50.0 °F 32.0 °F 50% 29.88 in 10.0 mi SW 9.2 mph - N/A   Clear
5:53 AM 54.0 °F 33.1 °F 45% 29.86 in 10.0 mi SW 15.0 mph - N/A   Clear
6:53 AM 55.9 °F 32.0 °F 40% 29.86 in 10.0 mi SW 15.0 mph - N/A   Clear
7:53 AM 57.9 °F 30.9 °F 36% 29.86 in 10.0 mi SW 19.6 mph - N/A   Clear
8:53 AM 66.0 °F 30.9 °F 27% 29.83 in 10.0 mi WSW 28.8 mph 36.8 mph N/A   Clear
9:53 AM 69.1 °F 28.9 °F 22% 29.82 in 10.0 mi WSW 32.2 mph 39.1 mph N/A   Clear
10:53 AM 72.0 °F 28.0 °F 20% 29.81 in 10.0 mi West 29.9 mph 44.9 mph N/A   Clear
11:53 AM 72.0 °F 28.0 °F 20% 29.81 in 10.0 mi WSW 29.9 mph 40.3 mph N/A   Clear
12:53 PM 71.1 °F 25.0 °F 18% 29.78 in 10.0 mi West 33.4 mph 46.0 mph N/A   Clear
1:53 PM 72.0 °F 26.1 °F 18% 29.75 in 10.0 mi WSW 26.5 mph 35.7 mph N/A   Clear
2:53 PM 75.9 °F 24.1 °F 15% 29.71 in 10.0 mi WSW 32.2 mph 41.4 mph N/A   Clear
3:53 PM 73.0 °F 23.0 °F 15% 29.71 in 10.0 mi West 33.4 mph 47.2 mph N/A   Clear
4:53 PM 72.0 °F 27.0 °F 19% 29.70 in 10.0 mi West 32.2 mph 43.7 mph N/A   Clear
5:53 PM 69.1 °F 26.1 °F 20% 29.70 in 10.0 mi WNW 27.6 mph 36.8 mph N/A   Clear
6:53 PM 64.9 °F 28.0 °F 25% 29.71 in 10.0 mi WNW 24.2 mph 34.5 mph N/A   Clear
7:53 PM 62.1 °F 28.9 °F 29% 29.71 in 10.0 mi West 23.0 mph - N/A   Clear
8:53 PM 61.0 °F 30.0 °F 31% 29.73 in 10.0 mi West 20.7 mph 29.9 mph N/A   Clear
9:53 PM 57.9 °F 30.9 °F 36% 29.76 in 10.0 mi SW 11.5 mph 20.7 mph N/A   Clear
10:53 PM 55.9 °F 32.0 °F 40% 29.79 in 10.0 mi WSW 10.4 mph - N/A   Clear
11:53 PM 55.0 °F 33.1 °F 43% 29.79 in 10.0 mi SW 15.0 mph - N/A   Mostly Cloudy